{"data":{"norad_id":61929,"intl_designator":"2024-207T","name":"STARLINK-32609","alt_names":[],"object_type":"PAYLOAD","status":"ACTIVE","operator":null,"country":"US","launch_date":"2024-11-11","launch_site_code":"AFETR","launch_vehicle":null,"mission":null,"orbit_class":"UNKNOWN","rcs_meters":null,"size_class":null,"mass_kg":null,"dimensions":null,"purposes":["comms"],"wikipedia_slug":null,"has_3d_model":false,"image_url":null,"decayed_at":null,"tle_current":{"epoch":"2026-09-21T00:02:30.795648Z","epoch_age_seconds":142313,"freshness":"FRESH","line1":"1 61929U 24207T   26264.00174532  .00008682  00000+0  32479-3 0  9995","line2":"2 61929  43.0056 258.6303 0002799 294.0911  65.9648 15.27564715104597","mean_motion":15.27564715,"eccentricity":0.0002799,"inclination_deg":43.0056,"raan_deg":258.6303,"arg_perigee_deg":294.0911,"mean_anomaly_deg":65.9648,"bstar":0.00032479,"rev_number":10459,"period_min":94.267691958308,"perigee_km":481.17440641097,"apogee_km":485.01532400911,"semimajor_km":6861.23186521,"source":"CELESTRAK","updated_at":"2026-09-22T09:00:49.452099Z"}}}